Regional Weather Roundup
Issued by NWS

Home | Current Version | Previous Version | Graphics & Text | Print | Product List | Glossary On
Versions: 1 2 3 4 5 6 7 8 9 10 11 12 13 14 15 16 17 18 19 20 21 22 23 24 25 26 27 28 29 30 31 32 33 34 35 36 37 38 39 40 41 42 43 44 45 46 47 48 49 50
000
ASUS45 KTFX 231004
RWRMT
MONTANA HOURLY WEATHER ROUNDUP
NATIONAL WEATHER SERVICE GREAT FALLS MT
404 AM MDT WED JUL 23 2014

NOTE: "FAIR" INDICATES FEW OR NO CLOUDS BELOW 12000 FEET WITH NO
SIGNIFICANT WEATHER AND/OR OBSTRUCTIONS TO VISIBILITY.

* THESE STATIONS ARE NOT UNDER NWS QUALITY CONTROL. THEY DO NOT
   REPORT WEATHER SUCH AS PRECIPITATION OR FOG.

MTZ001>007-043-231100-
WEST OF THE DIVIDE
CITY           SKY/WX    TMP DP  RH WIND       PRES   REMARKS
KALISPELL      LGT RAIN  59  55  87 CALM      30.14S
MISSOULA       CLOUDY    64  54  70 NE7       30.21R
BUTTE          CLOUDY    63  48  58 N/A       30.23R
MULLAN PASS    LGT RAIN  50  48  93 VRB7      30.31R
* ESSEX        N/A       56  51  83 S6G12      N/A
* LINCOLN      N/A       53  52  96 NW2        N/A
* LOOKOUT PASS N/A       54  54 100 S1         N/A
* POLSON       N/A       57  52  83 SW2        N/A
* RONAN APT    MOCLDY    55  52  90 N/A        N/A
* SEELEY LAKE  N/A       52  48  86 SE2G7      N/A
* THOMP F APT  CLOUDY    70  36  29 NE8G15     N/A
* YAAK HILL    N/A       58  55  90 N/A        N/A
$$

MTZ008-052>055-231100-
SOUTHWEST MONTANA
CITY           SKY/WX    TMP DP  RH WIND       PRES   REMARKS
BOZEMAN        MOCLDY    54  48  80 SE7       30.17F
DILLON         MOCLDY    63  48  58 VRB6      30.22R
W YELLOWSTONE  CLOUDY    45  43  93 CALM      30.30F
* THREE FORKS  MOCLDY    55  55 100 N/A        N/A
* BOULDER HILL N/A       57  45  64 SW4        N/A
* MONIDA PASS  N/A       54  37  53 SW3        N/A
* RAYNOLDS PAS N/A       51  36  57 S2         N/A
* WHITEHALL    N/A       66  52  61 E5G12      N/A
* WISE RIVER   N/A       51  46  83 W5G12      N/A
$$

MTZ009>010-012-014-046-048-049-054-231100-
EAST SLOPES AND CENTRAL MONTANA
CITY           SKY/WX    TMP DP  RH WIND       PRES   REMARKS
CUT BANK       MOCLDY    54  52  93 CALM      30.17S
GREAT FALLS    CLEAR     61  55  81 N3        30.13S
HELENA         MOCLDY    61  55  81 CALM      30.14F
MALMSTROM AFB  PTCLDY    59  54  84 E9        30.15R
* CONRAD       PTCLDY    54  54 100 N/A        N/A
* DEARBORN     N/A       59  57  93 N/A        N/A
* EAST GLACIER N/A       54  48  80 NW6        N/A
* MONARCH      N/A       60  47  62 S12G17     N/A
* SAINT MARY   N/A       47  46  96 S3         N/A
* SWEET GRASS  N/A       64  56  75 S12G17     N/A
$$

MTZ011-013-016-021-035-040-045-047-050-051-231100-
NORTH CENTRAL MONTANA
CITY           SKY/WX    TMP DP  RH WIND       PRES   REMARKS
HAVRE          PTCLDY    63  52  68 NE10      30.12S
LEWISTOWN      MOCLDY    61  54  78 CALM      30.21F
* CHESTER      N/A       66  53  63 SE5G10     N/A
* DENTON       N/A       65  56  73 S10        N/A
* GEYSER       N/A       59  56  90 NE2        N/A
* JUDITH GAP   N/A       56  55  96 N/A        N/A
* LOMA         N/A       68  54  61 NE14       N/A
$$

MTZ017>020-022>027-061-062-231100-
NORTHEAST MONTANA
CITY           SKY/WX    TMP DP  RH WIND       PRES   REMARKS
GLASGOW        MOCLDY    61  55  81 E7        30.18S
GLENDIVE       PTCLDY    63  59  87 E7        30.22S
JORDAN         PTCLDY    63  55  75 E5        30.18F
SIDNEY         CLEAR     61  59  93 CALM      30.23S
WOLF POINT     MOCLDY    61  55  81 NE5       30.19F
* BEAVER HILL  N/A       61  59  93 SE4G9      N/A
* CIRCLE       N/A       61  57  87 N/A        N/A
* LINDSAY DVD  N/A       59  58  97 E5         N/A
* NAVAJO       N/A       59  58  97 NE4        N/A
* SACO         N/A       61  56  84 NE8        N/A
$$

MTZ028>042-056>058-231100-
SOUTHCENTRAL AND SOUTHEAST MONTANA
CITY           SKY/WX    TMP DP  RH WIND       PRES   REMARKS
BAKER          CLEAR     59  57  93 SE5       30.23F
BILLINGS       FAIR      63  57  81 N8        30.18F
LIVINGSTON     CLOUDY    57  52  83 CALM      30.22F
MILES CITY     CLEAR     63  61  93 NE6       30.19F
* LAUREL APT   CLEAR     59  54  84 N/A        N/A
* ROUNDUP APT  MOCLDY    63  55  75 N/A        N/A
* ALZADA       N/A       62  59  90 NW3        N/A
* HYSHAM       N/A       61  59  93 E1         N/A
* LAME DEER    N/A       64  57  78 S11G17     N/A
* REED POINT   N/A       55  54  96 W4         N/A
* ROSCOE HILL  N/A       63  42  46 S5G10      N/A
$$

REGIONAL REPORTS...DAKOTAS
CITY           SKY/WX    TMP DP  RH WIND       PRES   REMARKS
WILLISTON      CLEAR     64  61  90 SE3       30.22S
DICKINSON      FOG       61  59  93 E8        30.23S
CROSBY         MOCLDY    63  63 100 E6        30.25S
TIOGA          PTCLDY    59  59 100 E6        30.28S
WATFORD CITY   CLEAR     63  63 100 E9        30.21F
BISMARCK       MOCLDY    64  61  90 SE5       30.26R
GRAND FORKS    CLEAR     57  55  93 N3        30.28R
FARGO          PTCLDY    57  55  93 CALM      30.27R
BUFFALO SD     PTCLDY    63  57  81 E7        30.16S
RAPID CITY     TSTM      64  57  78 SW16      30.26S
$$

REGIONAL REPORTS...WYOMING/IDAHO/WASHINGTON
CITY           SKY/WX    TMP DP  RH WIND       PRES   REMARKS
GILLETTE       CLEAR     64  55  73 SE9       30.29F
SHERIDAN       CLEAR     68  54  61 SE14      30.22F
CODY           PTCLDY    66  46  49 SW6       30.26R
YELLOWSTONE LA MOCLDY    43  39  86 NW3       30.42F
SALMON         MOCLDY    63  52  68 N9        30.16S
MULLAN PASS    LGT RAIN  50  48  93 VRB7      30.31S
SAND POINT     CLOUDY    61  54  78 NE9       30.11F
SPOKANE        CLOUDY    64  54  70 NE5       30.06F

$$



USA.gov is the U.S. government's official web portal to all federal, state and local government web resources and services.